Stations météo

réclame
Mon MeteoGroup
Leck, Allemagne (10022): Température de l'air & dewpoint: 12.12.2017 15:00:00 - 18.12.2017 15:00:00 (CET)Leck, Allemagne (10022): Température de l'air 5cm & Température de l'air -5cm: 12.12.2017 15:00:00 - 18.12.2017 15:00:00 (CET)Leck, Allemagne (10022): Température de l'air -20cm & Température de l'air -100cm: 12.12.2017 15:00:00 - 18.12.2017 15:00:00 (CET)Leck, Allemagne (10022): Vitesse du vent & gusts: 12.12.2017 15:00:00 - 18.12.2017 15:00:00 (CET)Leck, Allemagne (10022): Direction du vent: 12.12.2017 15:00:00 - 18.12.2017 15:00:00 (CET)Leck, Allemagne (10022): reduced air pressure: 12.12.2017 15:00:00 - 18.12.2017 15:00:00 (CET)Leck, Allemagne (10022): visibility: 12.12.2017 15:00:00 - 18.12.2017 15:00:00 (CET)Leck, Allemagne (10022): Ensoleillement: 12.12.2017 15:00:00 - 18.12.2017 15:00:00 (CET)Leck, Allemagne (10022): Quantités de précipitations: 12.12.2017 15:00:00 - 18.12.2017 15:00:00 (CET)
Date & Time tt [°C] td [°C] tt 5cm [°C] tt -5cm [°C] tt -20cm [°C] tt -100cm [°C] ff [km/h] ff [knt] fx [km/h] fx [knt] dd ppp [hPa] vv [km] sd [min] rr [mm]
18.12.2017 15:00:00 2,5 1,7 1,8 0,4 1,8 6,4 13 7 21 11 SW 1024,6 3,8 0 0,1
18.12.2017 14:00:00 2,6 1,1 2,2 0,3 1,8 6,4 14 8 21 11 SSW 1024,1 8 0 0,0
18.12.2017 13:00:00 2,5 1,0 2,2 0,3 1,8 6,4 12 6 17 9 SSW 1024,0 8 0 0,0
18.12.2017 12:00:00 2,4 0,9 1,8 0,2 1,8 6,4 10 6 16 9 S 1023,6 7 0 0,0
18.12.2017 11:00:00 2,2 1,0 1,6 0,2 1,8 6,4 10 6 19 10 S 1023,2 6 0 0,0
18.12.2017 10:00:00 2,0 0,9 1,3 0,2 1,8 6,4 10 5 16 9 S 1022,7 5 0 0,0
18.12.2017 09:00:00 1,7 1,0 1,0 0,2 1,8 6,4 13 7 18 10 SSE 1021,4 3,5 0 0,0
18.12.2017 08:00:00 1,7 1,2 1,0 0,2 1,8 6,5 8 5 15 8 SE 1020,8 2,7 0 0,0
18.12.2017 07:00:00 2,0 1,2 1,2 0,2 1,8 6,5 9 5 18 10 SSE 1019,6 3,6 0 0,0
18.12.2017 06:00:00 1,8 1,2 1,1 0,2 1,8 6,5 9 5 18 10 S 1018,7 3,2 0 0,0
18.12.2017 05:00:00 1,7 1,1 1,0 0,2 1,8 6,5 13 7 22 12 S 1017,9 2,9 0 0,0
18.12.2017 04:00:00 1,9 1,2 1,2 0,2 1,8 6,5 16 9 27 15 SSE 1017,6 3,4 0 0,0
18.12.2017 03:00:00 1,9 1,3 1,2 0,2 1,8 6,5 16 9 29 16 S 1017,4 3,4 0 0,0
18.12.2017 02:00:00 1,9 1,4 1,1 0,2 1,8 6,5 23 12 32 17 S 1017,2 3,1 0 0,0
18.12.2017 01:00:00 2,0 1,5 1,2 0,2 1,8 6,5 21 11 29 16 S 1017,0 4,2 0 0,0
18.12.2017 00:00:00 1,6 1,1 0,8 0,2 1,8 6,5 16 8 23 12 S 1017,3 6 0 0,0
17.12.2017 23:00:00 1,7 1,2 0,8 0,1 1,8 6,5 16 9 22 12 S 1017,7 7 0 0,0
17.12.2017 22:00:00 1,8 1,4 0,8 0,1 1,8 6,5 15 8 24 13 S 1018,1 7 0 0,0
17.12.2017 21:00:00 1,4 0,8 0,7 0,1 1,8 6,5 16 9 22 12 S 1018,4 10 0 0,0
17.12.2017 20:00:00 1,0 -0,1 -0,3 0,1 1,9 6,5 17 9 22 12 S 1018,4 26 0 0,0
17.12.2017 19:00:00 0,9 -0,4 -0,8 0,2 1,9 6,5 14 7 21 11 S 1018,6 31 0 0,0
17.12.2017 18:00:00 0,9 -0,2 -0,8 0,1 1,9 6,5 13 7 18 10 SSE 1018,9 20 0 0,0
17.12.2017 17:00:00 0,9 -0,4 -1,0 0,1 1,9 6,5 10 5 14 7 SSE 1019,3 25 0 0,0
17.12.2017 16:00:00 1,1 -0,1 -1,2 0,1 1,9 6,6 9 5 13 7 S 1019,5 25 22 0,0
17.12.2017 15:00:00 1,7 0,2 1,0 0,1 1,9 6,6 10 6 13 7 SSW 1019,7 36 36 0,0
17.12.2017 14:00:00 2,1 0,3 1,8 0,1 1,9 6,6 9 5 12 7 SSW 1019,8 28 60 0,0
17.12.2017 13:00:00 1,4 -0,2 1,4 0,1 1,9 6,6 8 5 9 5 SSW 1019,6 28 60 0,0
17.12.2017 12:00:00 0,6 -0,9 0,9 0,1 2,0 6,6 6 3 10 6 SSW 1019,8 22 60 0,0
17.12.2017 11:00:00 0,0 -1,8 0,2 0,0 2,0 6,6 4 2 5 3 WSW 1019,8 17 60 0,0
17.12.2017 10:00:00 -1,6 -2,7 -3,0 0,0 2,0 6,6 3 1 8 5 WNW 1019,3 13 22 0,0
17.12.2017 09:00:00 -1,8 -2,2 -5,2 0,1 2,0 6,6 6 3 13 7 NW 1018,6 23 0 0,0
17.12.2017 08:00:00 -1,4 -1,9 -3,8 0,1 2,1 6,6 11 6 16 9 NNW 1017,7 26 0 0,0
17.12.2017 07:00:00 -1,1 -1,7 -3,2 0,2 2,1 6,6 12 6 16 9 NNW 1017,0 33 0 0,0
17.12.2017 06:00:00 -1,0 -1,9 -4,5 0,2 2,1 6,6 9 5 13 7 N 1016,2 34 0 0,0
17.12.2017 05:00:00 -1,3 -2,3 -4,3 0,3 2,1 6,6 9 5 21 11 NW 1015,7 39 0 0,0
17.12.2017 04:00:00 -1,4 -2,7 -3,3 0,3 2,2 6,6 12 6 15 8 NW 1014,8 57 0 0,0
17.12.2017 03:00:00 -0,6 -2,7 -2,7 0,3 2,2 6,6 12 7 21 11 NW 1014,0 55 0 0,0
17.12.2017 02:00:00 -0,4 -3,1 -3,3 0,4 2,2 6,6 11 6 16 9 NNW 1013,1 60 0 0,0
17.12.2017 01:00:00 -1,4 -3,0 -4,3 0,4 2,3 6,6 10 5 12 7 NW 1012,5 57 0 0,0
17.12.2017 00:00:00 -1,1 -2,9 -4,5 0,5 2,3 6,6 9 5 13 7 NW 1011,6 59 0 0,0
16.12.2017 23:00:00 -1,4 -1,9 -4,7 0,5 2,3 6,6 5 3 8 4 WNW 1010,6 35 0 0,0
16.12.2017 22:00:00 0,0 -1,0 -3,5 0,6 2,3 6,7 7 4 9 5 WNW 1010,1 34 0 0,0
16.12.2017 21:00:00 0,5 -1,0 -3,1 0,6 2,4 6,7 5 3 13 7 WNW 1009,4 39 0 0,0
16.12.2017 20:00:00 1,2 -0,4 -1,8 0,6 2,4 6,7 9 5 15 8 W 1008,8 35 0 0,0
16.12.2017 19:00:00 2,1 0,0 -0,5 0,7 2,5 6,7 11 6 26 14 WNW 1007,8 43 0 0,0
16.12.2017 18:00:00 3,0 0,3 0,7 0,8 2,6 6,7 17 9 28 15 W 1007,0 58 0 0,0
16.12.2017 17:00:00 2,9 0,8 0,7 1,1 2,6 6,7 16 9 23 12 W 1006,3 47 0 0,0
16.12.2017 16:00:00 3,0 0,9 0,2 1,6 2,6 6,7 11 6 18 10 WNW 1005,5 44 6 0,0
16.12.2017 15:00:00 4,2 1,6 2,8 2,0 2,5 6,7 9 5 26 14 W 1005,0 68 42 0,2
16.12.2017 14:00:00 3,3 1,5 2,7 1,9 2,5 6,7 9 5 27 15 W 1004,7 70 15 0,0
16.12.2017 13:00:00 4,5 1,6 4,5 2,0 2,4 6,7 12 7 23 12 W 1004,3 30 38 0,0
16.12.2017 12:00:00 3,7 1,3 4,2 1,0 2,4 6,7 8 5 17 9 W 1004,0 47 45 0,0
16.12.2017 11:00:00 2,7 0,8 2,7 0,6 2,4 6,7 9 5 15 8 WSW 1003,7 66 36 0,0
16.12.2017 10:00:00 1,9 0,7 0,2 0,6 2,5 6,7 14 7 19 11 W 1003,1 42 7 0,2
16.12.2017 09:00:00 2,0 0,7 0,0 0,6 2,5 6,7 11 6 24 13 N 1002,5 12 0 0,7
16.12.2017 08:00:00 1,3 0,2 -1,9 0,6 2,6 6,7 9 5 15 8 W 1001,8 50 0 0,0
16.12.2017 07:00:00 1,5 0,4 -1,3 0,6 2,6 6,7 10 5 15 8 W 1001,4 43 0 0,0
16.12.2017 06:00:00 1,8 0,9 -0,5 0,7 2,7 6,7 8 5 13 7 W 1000,9 35 0 0,0
16.12.2017 05:00:00 1,7 0,9 -0,1 0,7 2,7 6,7 10 6 12 7 SW 1000,5 38 0 0,0
16.12.2017 04:00:00 2,1 1,3 0,0 0,7 2,8 6,7 7 4 14 7 W 1000,2 55 0 0,4
16.12.2017 03:00:00 1,8 0,1 -1,1 0,7 2,9 6,7 7 4 13 7 WSW 999,6 67 0 0,0
16.12.2017 02:00:00 1,8 0,4 -0,8 0,8 3,0 6,7 8 5 16 8 W 999,2 63 0 0,0
16.12.2017 01:00:00 2,0 1,3 0,2 0,8 3,1 6,7 13 7 19 10 WSW 999,0 47 0 0,0
16.12.2017 00:00:00 2,2 1,3 0,0 1,1 3,2 6,7 11 6 17 9 SW 998,8 70 0 0,1
15.12.2017 23:00:00 3,2 2,6 2,1 1,4 3,3 6,7 14 7 20 11 WSW 998,5 12 0 0,0
15.12.2017 22:00:00 2,3 1,6 0,2 0,9 3,4 6,7 11 6 16 8 SW 998,2 59 0 0,0
15.12.2017 21:00:00 1,9 1,5 -0,7 1,5 3,6 6,7 7 4 14 8 WSW 997,8 52 0 0,0
15.12.2017 20:00:00 2,9 2,1 1,2 2,3 3,7 6,7 14 8 20 11 WSW 997,4 51 0 0,0
15.12.2017 19:00:00 2,8 2,0 1,8 2,7 3,7 6,7 10 6 20 11 SW 997,0 28 0 0,0
15.12.2017 18:00:00 3,0 2,0 2,3 3,3 3,8 6,7 14 8 34 18 WSW 996,6 48 0 1,7
15.12.2017 17:00:00 3,8 3,2 3,1 3,7 3,7 6,7 15 8 29 15 WSW 996,2 2,8 0 2,1
15.12.2017 16:00:00 4,2 3,6 3,6 3,9 3,7 6,7 14 8 23 13 WSW 995,7 6 0 0,7
15.12.2017 15:00:00 4,3 3,8 3,8 4,2 3,5 6,7 10 5 24 13 WSW 995,1 3,1 0 0,7
15.12.2017 14:00:00 4,7 3,6 4,4 4,1 3,4 6,8 17 9 27 14 SW 994,1 7 7 0,1
15.12.2017 13:00:00 4,3 3,3 3,8 3,9 3,3 6,8 15 8 26 14 WSW 993,9 11 0 0,3
15.12.2017 12:00:00 4,2 3,6 3,9 3,6 3,2 6,8 13 7 20 11 WSW 993,5 6 0 0,1
15.12.2017 11:00:00 3,3 2,9 2,8 2,9 3,2 6,8 9 5 27 15 SSW 993,1 8 0 3,1
15.12.2017 10:00:00 3,3 3,0 2,7 2,8 3,2 6,8 21 11 31 17 WSW 992,5 3,5 0 4,5
15.12.2017 09:00:00 3,5 3,1 3,0 2,7 3,2 6,8 16 9 22 12 SSW 991,6 3,0 0 1,1
15.12.2017 08:00:00 3,0 2,6 2,2 2,5 3,2 6,8 11 6 19 10 S 990,9 7 0 3,7
15.12.2017 07:00:00 3,5 3,3 2,9 2,6 3,2 6,8 14 8 26 14 SW 990,0 1,3 0 0,3
15.12.2017 06:00:00 3,4 2,7 2,6 2,6 3,2 6,8 14 8 32 17 SSW 989,3 7 0 2,3
15.12.2017 05:00:00 2,7 2,2 2,1 2,7 3,2 6,8 22 12 35 19 SW 989,1 2,2 0 2,2
15.12.2017 04:00:00 3,1 2,7 2,5 2,4 3,1 6,8 15 8 24 13 SSW 988,3 11 0 0,4
15.12.2017 03:00:00 3,2 2,5 1,9 2,4 3,1 6,8 15 8 21 11 S 987,8 15 0 0,7
15.12.2017 02:00:00 3,4 2,5 2,7 2,4 3,1 6,8 12 6 21 11 S 987,3 13 0 0,0
15.12.2017 01:00:00 3,2 2,2 2,0 2,3 3,1 6,8 16 8 29 16 SW 987,0 55 0 0,2
15.12.2017 00:00:00 3,4 2,7 2,7 2,4 3,1 6,8 14 8 29 15 SW 987,0 24 0 0,4
14.12.2017 23:00:00 3,6 2,7 2,2 2,2 3,0 6,8 20 11 35 19 SSW 986,7 15 0 0,1
14.12.2017 22:00:00 3,7 2,7 2,7 2,4 3,0 6,8 16 9 39 21 SW 986,6 10 0 0,1
14.12.2017 21:00:00 3,3 2,4 2,3 1,7 3,1 6,8 21 11 37 20 SSW 986,4 20 0 0,0
14.12.2017 20:00:00 2,8 1,8 1,1 1,8 3,1 6,9 14 8 22 12 SSW 986,0 26 0 0,0
14.12.2017 19:00:00 3,9 0,8 2,5 2,2 3,1 6,9 16 8 31 17 SW 985,8 67 0 0,0
14.12.2017 18:00:00 3,6 1,9 2,1 2,3 3,1 6,9 15 8 30 16 SSW 985,7 41 0 0,0
14.12.2017 17:00:00 3,3 2,0 2,1 2,1 3,1 6,9 23 12 30 16 SSW 985,4 31 0 0,0
14.12.2017 16:00:00 3,0 1,1 1,7 2,3 3,1 6,9 18 10 31 17 SSW 985,1 70 0 0,0
14.12.2017 15:00:00 3,5 1,4 2,6 2,7 3,1 6,9 18 10 34 18 SW 984,8 70 0 0,0
14.12.2017 14:00:00 3,6 1,2 2,7 2,9 3,0 6,9 21 11 34 19 WSW 984,2 70 0 0,1
14.12.2017 13:00:00 4,2 2,5 3,5 2,9 2,9 6,9 11 6 34 19 SW 984,2 50 0 0,0
14.12.2017 12:00:00 4,0 1,4 2,9 2,4 2,9 6,9 21 12 33 18 SW 983,8 63 0 0,7
14.12.2017 11:00:00 4,4 2,1 3,0 2,5 2,8 6,9 14 7 29 16 WSW 983,4 41 0 0,1
14.12.2017 10:00:00 3,9 1,2 2,6 1,9 2,8 6,9 18 10 28 15 WSW 982,6 63 0 0,0
14.12.2017 09:00:00 3,1 1,3 1,4 1,5 2,8 6,9 15 8 40 22 WSW 981,7 63 0 0,6
14.12.2017 08:00:00 3,6 1,6 1,5 1,9 2,8 6,9 15 8 29 16 WSW 981,1 42 0 0,1
14.12.2017 07:00:00 3,9 2,2 2,8 1,9 2,8 6,9 16 9 33 18 WSW 980,1 38 0 0,0
14.12.2017 06:00:00 4,1 2,6 2,7 2,2 2,8 7,0 19 10 28 15 W 979,1 36 0 0,0
14.12.2017 05:00:00 3,7 2,9 3,0 2,3 2,7 7,0 17 9 46 25 W 978,8 38 0 0,0
14.12.2017 04:00:00 3,7 2,5 2,7 1,9 2,7 7,0 37 20 60 32 WNW 977,5 49 0 1,0
14.12.2017 03:00:00 0,9 0,7 0,2 1,1 2,8 7,0 13 7 31 17 SE 977,9 3,7 0 1,3
14.12.2017 02:00:00 1,3 1,0 0,7 1,5 2,8 7,0 17 9 39 21 SSE 978,8 3,5 0 2,4
14.12.2017 01:00:00 2,2 1,6 1,5 2,4 2,8 7,0 24 13 46 25 SSE 980,2 4,1 0 1,3
14.12.2017 00:00:00 3,3 3,0 3,0 2,6 2,7 7,0 21 12 40 22 SSE 981,6 3,5 0 0,0
13.12.2017 23:00:00 3,1 3,1 2,7 2,3 2,6 7,0 22 12 37 20 S 983,2 2,1 0 0,0
13.12.2017 22:00:00 2,5 2,5 2,3 2,0 2,5 7,0 24 13 37 20 S 984,8 0,7 0 0,0
13.12.2017 21:00:00 2,2 2,2 1,9 1,7 2,5 7,0 25 14 39 21 S 986,5 0,9 0 0,0
13.12.2017 20:00:00 2,0 2,0 1,6 1,3 2,4 7,0 26 14 38 21 S 987,7 2,6 0 0,0
13.12.2017 19:00:00 1,1 1,1 0,6 0,8 2,5 7,0 26 14 40 22 S 988,7 2,7 0 0,0
13.12.2017 18:00:00 0,7 0,7 0,1 0,8 2,5 7,0 25 13 40 21 S 989,8 5 0 0,7
13.12.2017 17:00:00 0,4 0,2 -0,1 1,1 2,6 7,1 22 12 36 19 S 991,1 0,9 0 0,2
13.12.2017 16:00:00 1,2 1,0 0,8 1,4 2,6 7,1 27 15 40 22 S 992,3 6 0 0,1
13.12.2017 15:00:00 0,9 0,7 0,3 1,2 2,6 7,1 26 14 54 29 S 993,3 8 0 0,8
13.12.2017 14:00:00 2,0 1,5 1,5 1,8 2,5 7,1 31 17 53 29 S 994,6 4,3 0 0,7
13.12.2017 13:00:00 1,5 1,0 1,0 1,7 2,5 7,1 32 17 49 26 S 996,0 3,1 0 0,3
13.12.2017 12:00:00 1,6 1,0 1,2 1,7 2,5 7,1 35 19 51 27 S 997,3 3,7 0 0,1
13.12.2017 11:00:00 1,6 0,9 1,0 1,5 2,4 7,1 36 19 53 29 S 998,7 4,4 0 0,4
13.12.2017 10:00:00 1,8 0,7 1,1 1,4 2,4 7,1 35 19 48 26 S 1000,1 6 0 0,0
13.12.2017 09:00:00 1,9 0,6 1,4 1,3 2,4 7,1 35 19 56 30 S 1001,3 6 0 0,0
13.12.2017 08:00:00 1,6 0,4 0,7 1,1 2,3 7,1 36 19 49 26 S 1002,2 4,6 0 0,0
13.12.2017 07:00:00 1,6 0,6 0,8 1,1 2,3 7,1 33 18 49 26 S 1003,1 4,2 0 0,0
13.12.2017 06:00:00 1,6 0,6 0,9 1,0 2,3 7,1 29 15 44 24 S 1004,4 4,7 0 0,0
13.12.2017 05:00:00 1,8 0,7 1,0 0,9 2,3 7,1 31 17 49 26 SSW 1005,2 5 0 0,0
13.12.2017 04:00:00 2,0 1,0 1,1 0,8 2,3 7,2 35 19 49 27 SSW 1005,8 5 0 0,0
13.12.2017 03:00:00 2,1 1,2 1,1 0,7 2,3 7,2 35 19 52 28 SSW 1006,2 4,8 0 0,0
13.12.2017 02:00:00 2,6 1,5 1,0 0,7 2,3 7,2 34 19 44 24 SSW 1006,1 11 0 0,0
13.12.2017 01:00:00 3,1 2,2 1,4 0,7 2,3 7,2 29 16 42 23 SSW 1006,4 10 0 0,0
13.12.2017 00:00:00 2,7 2,0 0,9 0,8 2,3 7,2 23 13 38 20 SSW 1006,3 20 0 0,0
12.12.2017 23:00:00 2,8 1,9 0,9 0,8 2,3 7,2 26 14 37 20 SSW 1006,0 23 0 0,0
12.12.2017 22:00:00 3,0 0,3 0,2 0,8 2,3 7,2 18 10 27 14 SSW 1006,1 54 0 0,0
12.12.2017 21:00:00 2,4 -0,5 -0,7 0,8 2,4 7,2 15 8 26 14 SSW 1006,1 66 0 0,0
12.12.2017 20:00:00 2,6 0,2 0,2 0,8 2,4 7,2 13 7 19 10 SW 1005,9 49 0 0,0
12.12.2017 19:00:00 1,6 0,3 -0,1 0,7 2,4 7,2 10 5 15 8 SSW 1005,4 46 0 0,0
12.12.2017 18:00:00 0,0 -1,6 -4,5 0,7 2,4 7,2 10 6 14 8 SW 1004,8 35 0 0,0
12.12.2017 17:00:00 0,2 -1,6 -5,1 0,8 2,4 7,3 8 5 13 7 WSW 1004,0 30 0 0,0
12.12.2017 16:00:00 1,3 -0,6 -0,5 0,9 2,4 7,3 9 5 13 7 WSW 1003,1 27 0 0,0
12.12.2017 15:00:00 1,5 -1,3 -1,0 0,9 2,4 7,3 9 5 17 9 WNW 1001,6 31 0 0,0

tt = Température de l'air
td = dewpoint
tt 5cm = Température de l'air 5cm
tt -5cm = Température de l'air -5cm
tt -20cm = Température de l'air -20cm
tt -100cm = Température de l'air -100cm
ff = Vitesse du vent
fx = gusts
dd = Direction du vent
ppp = reduced air pressure
vv = visibility
sd = Ensoleillement
rr = Quantités de précipitations

stations d'obs. à proximité